Location: Bats
(43.6587°N, 0.4584°W)
Time: 08:53:48
(UTC+00:00)

YAOGAN 1 - Pass Details

Date: 12 January 2026
Orbit: 605 x 607 km, 97.8° (Epoch: 17 February)

Event Time Altitude Azimuth Distance (km) Brightness Sun altitude
Rises 18:59:56 0° 185° (S) 2,850 6.1 -23.5°
Reaches altitude 10° 19:02:13 10° 194° (SSW) 1,951 5.3 -23.9°
Maximum altitude 19:06:10 38° 263° (W) 940 4.0 -24.6°
Drops below altitude 10° 19:10:10 10° 331° (NNW) 1,966 5.4 -25.3°
Sets 19:12:29 0° 340° (NNW) 2,875 6.2 -25.7°
